Hourly Data Report for October 12, 2016

All times are specified in Local Standard Time (LST). Add 1 hour to adjust for Daylight Saving Time where and when it is observed.

QIKIQTARJUAQ A
NUNAVUT

67°32'48.000" N
64°01'54.000" W
5.50 m
2400577
YVM

Download Data

Hourly Data (October 2016)
Hourly Data Report for October 12, 2016
Temp Definition
°C
Dew Point Temp Definition
°C
Rel Hum Definition
%
Wind Dir Definition
10's deg

Wind Spd Definition
km/h
Visibility Definition
km
Stn Press Definition
kPa
Hmdx Definition


Wind Chill Definition


Weather Definition


TIME
00:00 Legend Double Dagger -5.5 -11.0 65 14 8 16.1 101.11   -9 LegendNANA
01:00 Legend Double Dagger -6.7 -11.0 72 13 5 16.1 101.12   -9 LegendNANA
02:00 Legend Double Dagger -5.9 -10.5 70 15 5 16.1 101.13   -8 LegendNANA
03:00 Legend Double Dagger -3.3 -9.4 63 LegendMM 4 16.1 101.13   -5 LegendNANA
04:00 Legend Double Dagger -2.9 -8.9 63 20 13 16.1 101.15   -8 LegendNANA
05:00 Legend Double Dagger -4.0 -7.6 76 16 5 16.1 101.19   -6 LegendNANA
06:00 Legend Double Dagger -3.0 -7.5 71 23 5 16.1 101.18   -5 LegendNANA
07:00 Legend Double Dagger -3.5 -7.3 75   0 16.1 101.20     LegendNANA
08:00 Legend Double Dagger -3.7 -7.7 74   0 16.1 101.23     LegendNANA
09:00 Legend Double Dagger -3.9 -7.5 76 19 5 16.1 101.24   -6 LegendNANA
10:00 Legend Double Dagger -3.0 -5.6 82 21 5 16.1 101.28   -5 LegendNANA
11:00 Legend Double Dagger -3.5 -6.1 82   0 16.1 101.30     LegendNANA
12:00 Legend Double Dagger -3.4 -6.0 82 16 5 16.1 101.32   -5 LegendNANA
13:00 Legend Double Dagger -2.9 -5.4 83 14 4 16.1 101.37   -4 LegendNANA
14:00 Legend Double Dagger -3.7 -6.0 84 15 8 16.1 101.41   -7 LegendNANA
15:00 Legend Double Dagger -2.5 -5.2 82 15 5 16.1 101.46   -4 LegendNANA
16:00 Legend Double Dagger -3.0 -5.0 86 LegendMM 8 16.1 101.47   -6 LegendNANA
17:00 Legend Double Dagger -2.9 -5.1 85 14 5 16.1 101.49   -5 LegendNANA
18:00 Legend Double Dagger -2.7 -5.0 84 18 5 16.1 101.49   -5 LegendNANA
19:00 Legend Double Dagger -3.9 -6.0 85 16 5 16.1 101.50   -6 LegendNANA
20:00 Legend Double Dagger -2.9 -5.0 86 15 5 16.1 101.51   -5 LegendNANA
21:00 Legend Double Dagger -2.7 -4.1 90 20 11 16.1 101.48   -7 Snow
22:00 Legend Double Dagger -2.8 -3.6 94 18 11 4.8 101.45   -7 Snow
23:00 Legend Double Dagger -3.3 -4.0 95 20 11 11.3 101.41   -8 Snow

Notes on Data Quality.

Legend

  • E = Estimated
  • M = Missing
  • NA = Not Available
  • ‡ = Partner data that is not subject to review by the National Climate Archives
Date modified: